Weather reports worldwide

Advertisment
Figari, France (7780): temperature & dewpoint: 23.10.2020 11:00:00 - 29.10.2020 11:00:00 (CET)Figari, France (7780): temperature 5cm: 23.10.2020 11:00:00 - 29.10.2020 11:00:00 (CET)Figari, France (7780): wind speed & gusts: 23.10.2020 11:00:00 - 29.10.2020 11:00:00 (CET)Figari, France (7780): wind direction: 23.10.2020 11:00:00 - 29.10.2020 11:00:00 (CET)Figari, France (7780): reduced air pressure: 23.10.2020 11:00:00 - 29.10.2020 11:00:00 (CET)Figari, France (7780): visibility: 23.10.2020 11:00:00 - 29.10.2020 11:00:00 (CET)Figari, France (7780): precipitation: 23.10.2020 11:00:00 - 29.10.2020 11:00:00 (CET)
Date & Time tt [°C] td [°C] tt 5cm [°C] ff [km/h] ff [kn] fx [km/h] fx [kn] dd ppp [hPa] vv [km] rr [mm]
29.10.2020 11:00:00 18,3 12,1 15,6 26 14 60 32 WSW 1020,7 29 0,0
29.10.2020 10:00:00 18,0 12,2 15,3 29 15 56 30 WSW 1020,5 34 0,0
29.10.2020 09:00:00 17,9 12,3 15,0 29 16 53 28 W 1020,5 34 0,0
29.10.2020 08:00:00 17,6 12,5 14,7 27 14 55 30 W 1020,2 39 0,0
29.10.2020 07:00:00 17,0 13,1 14,3 27 15 44 24 W 1019,8 47 0,0
29.10.2020 06:00:00 16,6 12,5 13,9 16 9 40 22 WSW 1020,2 54 0,0
29.10.2020 05:00:00 16,6 12,5 14,4 21 11 44 24 W 1020,1 52 0,0
29.10.2020 04:00:00 17,0 12,7 14,0 21 11 39 21 W 1020,0 57 0,0
29.10.2020 03:00:00 15,9 12,3 12,2 17 9 30 16 WSW 1020,5 51 0,0
29.10.2020 02:00:00 14,8 11,9 11,6 15 8 29 16 WSW 1020,8 47 0,0
29.10.2020 01:00:00 13,8 11,7 10,3 14 8 21 11 SW 1021,0 19 0,0
29.10.2020 00:00:00 13,3 11,2 9,6 14 7 20 11 SW 1021,0 54 0,0
28.10.2020 23:00:00 12,1 10,7 10,1 10 6 19 11 WSW 1021,4 19 0,0
28.10.2020 22:00:00 13,1 11,0 10,4 10 6 18 10 SW 1021,5 52 0,0
28.10.2020 21:00:00 13,9 11,2 11,3 13 7 30 16 WSW 1021,3 19 0,0
28.10.2020 20:00:00 14,4 11,5 11,6 16 8 24 13 WSW 1020,7 40 0,0
28.10.2020 19:00:00 14,9 11,7 12,9 16 9 37 20 WSW 1020,4 46 0,0
28.10.2020 18:00:00 15,2 11,8 13,0 16 9 29 15 WSW 1020,0 49 0,0
28.10.2020 17:00:00 16,5 11,4 14,8 22 12 42 23 WSW 1019,5 31 0,0
28.10.2020 16:00:00 18,7 11,0 15,5 21 11 37 20 WSW 1019,2 32 0,0
28.10.2020 15:00:00 19,5 11,0 15,8 26 14 43 23 WSW 1019,2 18 0,0
28.10.2020 14:00:00 19,9 11,4 16,1 26 14 46 25 WSW 1019,1 30 0,0
28.10.2020 13:00:00 20,1 11,0 16,7 28 15 45 24 WSW 1019,0 37 0,0
28.10.2020 12:00:00 20,0 10,4 15,6 23 12 40 21 SW 1019,0 46 0,0
28.10.2020 11:00:00 19,6 9,2 15,4 22 12 35 19 WSW 1019,1 51 0,0
28.10.2020 10:00:00 17,9 10,5 13,2 8 5 16 9 S 1019,0 33 0,0
28.10.2020 09:00:00 13,6 9,2 7,5 3 2 6 4 SSE 1018,9 13 0,0
28.10.2020 08:00:00 8,0 7,6 3,6 6 3 9 5 E 1018,4 44 0,0
28.10.2020 07:00:00 3,8 3,2 3,2 6 4 10 5 NE 1017,8 38 0,0
28.10.2020 06:00:00 4,5 3,9 3,6 6 3 9 5 NE 1017,3 38 0,0
28.10.2020 05:00:00 4,9 4,2 4,0 7 4 9 5 NNE 1016,8 34 0,0
28.10.2020 04:00:00 6,0 5,1 4,6 4 2 12 6 NNW 1016,4 34 0,0
28.10.2020 03:00:00 5,9 4,7 5,8 5 3 10 6 NE 1016,7 36 0,0
28.10.2020 02:00:00 6,7 5,2 6,1 6 3 14 8 NNE 1016,7 38 0,0
28.10.2020 01:00:00 9,1 5,8 8,1 4 2 29 16 ENE 1016,3 41 0,0
28.10.2020 00:00:00 13,5 7,5 9,4 19 10 34 18 W 1016,1 40 0,0
27.10.2020 23:00:00 14,0 7,5 8,7 19 10 38 20 WNW 1015,7 36 0,0
27.10.2020 22:00:00 12,0 7,7 8,8 12 6 26 14 WSW 1015,8 36 0,0
27.10.2020 21:00:00 13,5 7,7 9,3 11 6 31 17 WNW 1015,2 38 0,0
27.10.2020 20:00:00 14,1 7,6 11,1 15 8 35 19 WNW 1014,5 37 0,0
27.10.2020 19:00:00 14,3 7,8 12,1 17 9 37 20 W 1014,1 37 0,0
27.10.2020 18:00:00 14,6 8,1 13,0 22 12 41 22 W 1013,6 35 0,0
27.10.2020 17:00:00 14,7 8,6 13,3 26 14 44 24 W 1013,1 27 0,0
27.10.2020 16:00:00 17,2 8,3 14,4 28 15 48 26 W 1012,5 29 0,0
27.10.2020 15:00:00 18,2 8,5 15,2 25 13 56 30 W 1012,4 20 0,0
27.10.2020 14:00:00 18,2 8,2 15,3 31 17 61 33 W 1011,8 34 0,0
27.10.2020 13:00:00 18,1 7,8 14,9 29 15 51 28 W 1012,1 31 0,0
27.10.2020 12:00:00 17,5 8,4 15,1 24 13 49 27 W 1012,6 39 0,0
27.10.2020 11:00:00 16,0 11,4 15,2 19 10 54 29 W 1012,8 19 0,4
27.10.2020 10:00:00 16,4 10,7 14,6 31 17 57 31 W 1012,3 17 0,0
27.10.2020 09:00:00 16,6 9,0 13,5 34 18 59 32 W 1011,5 30 0,0
27.10.2020 08:00:00 15,2 9,1 12,8 31 17 55 30 W 1011,2 20 0,0
27.10.2020 07:00:00 14,6 8,1 12,6 29 16 61 33 W 1010,5 32 0,0
27.10.2020 06:00:00 14,9 8,4 12,9 33 18 72 39 W 1009,7 29 0,0
27.10.2020 05:00:00 14,5 8,9 12,8 38 21 68 37 W 1009,0 17 0,0
27.10.2020 04:00:00 14,8 8,9 13,0 30 16 62 34 W 1009,4 18 0,0
27.10.2020 03:00:00 14,7 9,5 13,3 30 16 61 33 W 1009,9 28 0,0
27.10.2020 02:00:00 15,0 9,1 13,4 34 18 54 29 W 1009,6 30 0,0
27.10.2020 01:00:00 15,1 9,9 13,5 27 14 51 27 W 1010,0 20 0,0
27.10.2020 00:00:00 15,2 9,8 13,7 27 14 47 26 W 1009,3 32 0,0
26.10.2020 23:00:00 14,3 10,5 13,6 25 13 42 23 W 1009,6 35 0,0
26.10.2020 22:00:00 13,8 11,1 13,7 24 13 40 22 WSW 1009,7 35 0,0
26.10.2020 21:00:00 13,5 12,2 13,8 20 11 37 20 WSW 1008,8 35 0,4
26.10.2020 20:00:00 13,7 11,9 14,0 25 13 36 19 WSW 1008,8 41 0,2
26.10.2020 19:00:00 14,0 11,5 14,2 21 11 41 22 SW 1008,4 18 0,0
26.10.2020 18:00:00 15,7 9,8 14,4 21 11 55 30 WNW 1006,9 59 0,4
26.10.2020 17:00:00 15,0 12,1 14,8 29 16 55 30 NW 1006,1 4,3 1,0
26.10.2020 16:00:00 18,5 14,4 18,4 19 10 49 26 W 1005,9 14 0,0
26.10.2020 15:00:00 21,4 15,0 19,8 28 15 45 25 SW 1006,7 26 0,0
26.10.2020 14:00:00 22,2 15,8 19,3 23 12 39 21 SW 1007,5 19 0,0
26.10.2020 13:00:00 20,6 14,7 20,0 17 9 36 19 SW 1009,0 35 0,0
26.10.2020 12:00:00 21,8 14,7 19,6 21 11 34 18 SW 1010,0 31 0,0
26.10.2020 11:00:00 22,2 14,8 18,1 15 8 31 17 SW 1010,8 42 0,0
26.10.2020 10:00:00 20,1 14,5 17,5 16 9 26 14 SW 1011,3 30 0,0
26.10.2020 09:00:00 18,5 15,2 16,4 9 5 15 8 SW 1011,6 34 0,0
26.10.2020 08:00:00 16,9 15,4 15,3 6 3 11 6 WSW 1011,7 27 0,0
26.10.2020 07:00:00 16,1 15,3 13,9 6 4 11 6 W 1011,3 19 0,0
26.10.2020 06:00:00 15,0 14,2 13,9 5 3 9 5 WSW 1011,8 18 0,0
26.10.2020 05:00:00 16,2 14,7 14,9 6 3 14 8 SW 1012,4 20 0,0
26.10.2020 04:00:00 16,1 15,1 14,8 7 4 11 6 WSW 1012,9 18 0,0
26.10.2020 03:00:00 16,7 15,2 15,3 8 4 14 7 SW 1013,4 23 0,0
26.10.2020 02:00:00 17,1 15,1 15,9 10 6 18 10 W 1014,2 25 0,0
26.10.2020 01:00:00 17,6 14,9 16,3 16 9 23 12 SW 1014,6 30 0,0
26.10.2020 00:00:00 17,6 15,2 16,1 11 6 17 9 W 1015,1 33 0,0
25.10.2020 23:00:00 17,7 15,3 15,3 9 5 17 9 W 1015,4 35 0,0
25.10.2020 22:00:00 16,9 14,9 15,4 8 4 17 9 W 1015,7 20 0,0
25.10.2020 21:00:00 17,4 14,9 15,5 14 8 19 10 SW 1015,8 35 0,0
25.10.2020 20:00:00 17,3 14,6 15,6 11 6 20 11 WSW 1015,9 38 0,0
25.10.2020 19:00:00 17,3 15,3 15,8 10 6 15 8 WSW 1016,2 32 0,0
25.10.2020 18:00:00 17,8 15,4 15,9 10 5 21 11 WSW 1016,0 21 0,0
25.10.2020 17:00:00 19,2 14,9 17,9 16 9 27 15 WSW 1015,8 42 0,0
25.10.2020 16:00:00 19,7 15,1 18,7 19 10 36 20 WSW 1016,1 46 0,0
25.10.2020 15:00:00 21,2 15,1 19,6 20 11 39 21 WSW 1016,3 31 0,0
25.10.2020 14:00:00 21,6 14,3 20,2 21 11 37 20 WSW 1016,6 40 0,0
25.10.2020 13:00:00 21,4 14,8 20,3 23 12 36 20 SW 1017,4 45 0,0
25.10.2020 12:00:00 21,5 14,2 19,4 25 13 40 22 SW 1018,0 42 0,0
25.10.2020 11:00:00 21,4 12,3 18,1 19 11 37 20 W 1018,2 37 0,0
25.10.2020 10:00:00 20,4 12,4 17,0 17 9 34 18 W 1018,2 38 0,0
25.10.2020 09:00:00 19,5 11,8 15,0 20 11 31 17 W 1018,2 35 0,0
25.10.2020 08:00:00 17,0 12,5 12,3 15 8 26 14 SW 1018,0 55 0,0
25.10.2020 07:00:00 15,3 10,5 12,4 15 8 27 14 SW 1017,8 53 0,0
25.10.2020 06:00:00 17,0 10,1 12,3 19 10 31 17 W 1017,5 60 0,0
25.10.2020 05:00:00 15,8 9,5 11,8 16 9 27 15 SW 1017,4 59 0,0
25.10.2020 04:00:00 16,0 9,6 12,7 13 7 40 22 W 1017,7 60 0,0
25.10.2020 03:00:00 16,4 11,3 13,7 26 14 42 23 W 1018,0 50 0,0
25.10.2020 02:00:00 16,2 11,4 13,8 16 9 53 28 W 1018,6 51 0,0
25.10.2020 01:00:00 - - - - - - - - - - -
25.10.2020 00:00:00 16,9 11,8 15,5 22 12 45 24 W 1019,0 40 0,0
24.10.2020 23:00:00 17,1 11,8 15,6 23 12 42 23 WSW 1019,3 39 0,0
24.10.2020 22:00:00 17,4 11,9 15,4 23 12 54 29 WSW 1019,2 40 0,0
24.10.2020 21:00:00 17,3 11,3 15,3 23 12 56 30 WSW 1018,7 38 0,0
24.10.2020 20:00:00 17,8 11,1 15,2 29 16 63 34 W 1018,6 41 0,0
24.10.2020 19:00:00 17,8 10,7 15,4 37 20 67 36 W 1018,3 40 0,0
24.10.2020 18:00:00 17,5 11,1 15,7 30 16 56 30 W 1018,3 38 0,0
24.10.2020 17:00:00 18,3 11,4 16,5 26 14 51 27 W 1018,3 26 0,0
24.10.2020 16:00:00 19,5 12,7 17,2 29 16 52 28 W 1018,5 21 0,0
24.10.2020 15:00:00 19,7 12,9 17,7 35 19 58 31 W 1018,2 13 0,0
24.10.2020 14:00:00 20,5 13,7 18,4 33 18 58 31 W 1018,1 24 0,0
24.10.2020 13:00:00 20,7 14,1 18,7 34 18 57 31 W 1018,8 20 0,0
24.10.2020 12:00:00 21,1 14,0 18,7 30 16 56 30 WSW 1019,2 25 0,0
24.10.2020 11:00:00 20,9 14,1 16,9 30 16 47 25 WSW 1019,3 20 0,0
24.10.2020 10:00:00 19,9 12,9 17,3 28 15 45 24 W 1019,3 47 0,0
24.10.2020 09:00:00 20,1 13,8 16,4 21 11 40 21 W 1019,2 36 0,0
24.10.2020 08:00:00 17,7 14,4 16,4 16 9 40 22 WSW 1018,7 28 0,0
24.10.2020 07:00:00 18,1 15,5 17,1 22 12 35 19 WSW 1018,3 18 0,0
24.10.2020 06:00:00 18,2 16,7 17,1 17 9 28 15 WSW 1018,5 20 0,0
24.10.2020 05:00:00 18,3 17,0 17,3 14 8 27 15 SW 1018,8 20 0,0
24.10.2020 04:00:00 18,6 17,4 17,8 17 9 36 19 WSW 1018,8 18 0,0
24.10.2020 03:00:00 19,2 18,2 17,8 27 14 40 22 WSW 1018,9 11 0,0
24.10.2020 02:00:00 19,2 18,4 17,5 15 8 28 15 WSW 1019,2 10 0,2
24.10.2020 01:00:00 18,8 17,3 16,7 13 7 26 14 WSW 1019,4 16 0,2
24.10.2020 00:00:00 18,6 16,2 17,2 16 8 29 16 WSW 1019,7 20 0,0
23.10.2020 23:00:00 18,7 16,7 17,6 19 11 32 18 WSW 1020,0 16 0,0
23.10.2020 22:00:00 19,1 17,8 17,9 20 11 33 18 SW 1019,8 11 0,0
23.10.2020 21:00:00 19,5 18,2 18,5 21 12 36 20 WSW 1019,2 9 0,0
23.10.2020 20:00:00 20,3 19,0 18,4 20 11 31 17 WSW 1018,8 7 0,0
23.10.2020 19:00:00 20,2 18,0 18,5 14 8 29 16 WSW 1018,8 12 0,0
23.10.2020 18:00:00 21,5 16,9 18,8 15 8 29 16 WSW 1018,4 21 0,0
23.10.2020 17:00:00 21,9 15,7 19,4 12 7 24 13 SW 1018,1 16 0,0
23.10.2020 16:00:00 23,4 15,7 20,5 18 10 31 17 W 1018,1 18 0,0
23.10.2020 15:00:00 25,1 17,3 22,5 11 6 19 11 SW 1017,9 30 0,0
23.10.2020 14:00:00 25,1 18,8 23,5 9 5 23 12 NE 1017,8 17 0,0
23.10.2020 13:00:00 24,0 18,0 23,0 14 8 34 18 ENE 1018,4 23 0,0
23.10.2020 12:00:00 22,8 18,1 22,7 23 13 43 23 ENE 1018,8 19 0,0
23.10.2020 11:00:00 22,6 18,4 21,4 23 12 44 24 ENE 1019,4 14 0,0

tt = temperature
td = dewpoint
tt 5cm = temperature 5cm
ff = wind speed
fx = gusts
dd = wind direction
ppp = reduced air pressure
vv = visibility
rr = precipitation

Next stations